TimeEST,TemperatureF,Dew PointF,Humidity,Sea Level PressureIn,VisibilityMPH,Wind Direction,Wind SpeedMPH,Gust SpeedMPH,PrecipitationIn,Events,Conditions,WindDirDegrees,DateUTC
12:15 AM,60.8,57.2,88,30.05,9.0,Calm,Calm,-,N/A,,Unknown,0,2013-02-22 05:15:00
12:35 AM,62.6,57.2,82,30.05,10.0,Calm,Calm,-,N/A,,Unknown,0,2013-02-22 05:35:00
12:55 AM,62.6,57.2,82,30.05,10.0,Calm,Calm,-,N/A,,Unknown,0,2013-02-22 05:55:00
1:15 AM,62.6,57.2,82,30.05,10.0,Calm,Calm,-,N/A,,Unknown,0,2013-02-22 06:15:00
1:35 AM,62.6,59.0,88,30.05,10.0,Calm,Calm,-,N/A,,Unknown,0,2013-02-22 06:35:00
1:55 AM,62.6,59.0,88,30.04,9.0,Calm,Calm,-,N/A,,Unknown,0,2013-02-22 06:55:00
2:15 AM,60.8,59.0,94,30.04,10.0,Calm,Calm,-,N/A,,Unknown,0,2013-02-22 07:15:00
3:15 AM,60.8,59.0,94,30.04,9.0,Calm,Calm,-,N/A,,Unknown,0,2013-02-22 08:15:00
3:55 AM,60.8,60.8,100,30.04,9.0,Calm,Calm,-,N/A,,Unknown,0,2013-02-22 08:55:00
4:15 AM,60.8,60.8,100,30.04,8.0,Calm,Calm,-,N/A,,Unknown,0,2013-02-22 09:15:00
4:35 AM,60.8,60.8,100,30.04,9.0,Calm,Calm,-,N/A,,Unknown,0,2013-02-22 09:35:00
4:55 AM,60.8,60.8,100,30.05,7.0,Calm,Calm,-,N/A,,Unknown,0,2013-02-22 09:55:00
5:35 AM,62.6,62.6,100,30.06,3.0,Calm,Calm,-,N/A,,Mist,0,2013-02-22 10:35:00
5:55 AM,62.6,62.6,100,30.06,3.0,Calm,Calm,-,N/A,,Mist,0,2013-02-22 10:55:00
6:15 AM,62.6,62.6,100,30.06,3.0,SE,5.8,-,N/A,,Mist,130,2013-02-22 11:15:00
6:55 AM,64.4,64.4,100,30.06,5.0,Calm,Calm,-,N/A,,Mist,0,2013-02-22 11:55:00
7:55 AM,68.0,64.4,88,30.08,5.0,SSE,6.9,-,N/A,,Mist,150,2013-02-22 12:55:00
8:15 AM,69.8,64.4,83,30.09,5.0,South,6.9,-,N/A,,Mist,170,2013-02-22 13:15:00
8:35 AM,69.8,64.4,83,30.10,9.0,South,8.1,-,N/A,,Unknown,180,2013-02-22 13:35:00
8:55 AM,71.6,64.4,78,30.10,8.0,South,8.1,-,N/A,,Unknown,170,2013-02-22 13:55:00
9:15 AM,73.4,66.2,78,30.10,9.0,SSE,8.1,-,N/A,,Unknown,160,2013-02-22 14:15:00
10:15 AM,78.8,64.4,61,30.09,8.0,South,10.4,-,N/A,,Unknown,170,2013-02-22 15:15:00
10:35 AM,78.8,62.6,57,30.09,8.0,South,12.7,19.6,N/A,,Unknown,170,2013-02-22 15:35:00
10:55 AM,78.8,62.6,57,30.08,8.0,SSE,13.8,-,N/A,,Unknown,150,2013-02-22 15:55:00
12:15 PM,82.4,62.6,51,30.06,5.0,SSE,9.2,-,N/A,,Haze,150,2013-02-22 17:15:00
12:35 PM,82.4,62.6,51,30.06,5.0,South,12.7,-,N/A,,Haze,190,2013-02-22 17:35:00
1:15 PM,84.2,62.6,48,30.04,10.0,South,11.5,-,N/A,,Unknown,190,2013-02-22 18:15:00
1:55 PM,84.2,60.8,45,30.02,10.0,SE,9.2,-,N/A,,Unknown,130,2013-02-22 18:55:00
2:15 PM,84.2,60.8,45,30.02,10.0,SSE,8.1,-,N/A,,Unknown,160,2013-02-22 19:15:00
2:35 PM,86.0,60.8,43,30.01,10.0,SSE,8.1,-,N/A,,Unknown,160,2013-02-22 19:35:00
2:55 PM,86.0,60.8,43,30.01,10.0,SSW,8.1,-,N/A,,Unknown,200,2013-02-22 19:55:00
3:15 PM,84.2,60.8,45,30.00,10.0,SSE,8.1,-,N/A,,Unknown,160,2013-02-22 20:15:00
3:35 PM,84.2,60.8,45,30.00,10.0,SSE,8.1,-,N/A,,Unknown,150,2013-02-22 20:35:00
3:55 PM,84.2,60.8,45,30.00,10.0,South,3.5,-,N/A,,Unknown,170,2013-02-22 20:55:00
4:15 PM,84.2,60.8,45,30.00,10.0,SE,6.9,-,N/A,,Unknown,140,2013-02-22 21:15:00
4:55 PM,82.4,60.8,48,29.99,10.0,SE,5.8,-,N/A,,Unknown,140,2013-02-22 21:55:00
5:15 PM,82.4,60.8,48,29.99,10.0,Calm,Calm,-,N/A,,Unknown,0,2013-02-22 22:15:00
5:35 PM,82.4,60.8,48,29.99,9.0,ESE,9.2,-,N/A,,Unknown,120,2013-02-22 22:35:00
5:55 PM,80.6,60.8,51,30.00,9.0,SE,8.1,-,N/A,,Unknown,130,2013-02-22 22:55:00
6:15 PM,80.6,60.8,51,30.00,8.0,ESE,4.6,-,N/A,,Unknown,120,2013-02-22 23:15:00
6:35 PM,78.8,60.8,54,30.01,10.0,Calm,Calm,-,N/A,,Unknown,0,2013-02-22 23:35:00
6:55 PM,78.8,60.8,54,30.02,10.0,Calm,Calm,-,N/A,,Unknown,0,2013-02-22 23:55:00
7:15 PM,77.0,60.8,57,30.02,10.0,Calm,Calm,-,N/A,,Unknown,0,2013-02-23 00:15:00
7:35 PM,77.0,60.8,57,30.03,10.0,ESE,4.6,-,N/A,,Unknown,110,2013-02-23 00:35:00
7:55 PM,77.0,62.6,61,30.04,10.0,Calm,Calm,-,N/A,,Unknown,0,2013-02-23 00:55:00
8:15 PM,77.0,66.2,69,30.04,10.0,East,5.8,-,N/A,,Unknown,100,2013-02-23 01:15:00
8:35 PM,75.2,66.2,73,30.05,10.0,Calm,Calm,-,N/A,,Unknown,0,2013-02-23 01:35:00
8:55 PM,73.4,66.2,78,30.05,10.0,Calm,Calm,-,N/A,,Unknown,0,2013-02-23 01:55:00
9:15 PM,73.4,66.2,78,30.05,10.0,Calm,Calm,-,N/A,,Unknown,0,2013-02-23 02:15:00
9:55 PM,73.4,66.2,78,30.06,10.0,Calm,Calm,-,N/A,,Unknown,0,2013-02-23 02:55:00
10:35 PM,73.4,66.2,78,30.05,10.0,Calm,Calm,-,N/A,,Unknown,0,2013-02-23 03:35:00
10:55 PM,71.6,66.2,83,30.04,10.0,Calm,Calm,-,N/A,,Unknown,0,2013-02-23 03:55:00
11:15 PM,71.6,66.2,83,30.03,10.0,Calm,Calm,-,N/A,,Unknown,0,2013-02-23 04:15:00
11:55 PM,69.8,66.2,88,30.01,10.0,Calm,Calm,-,N/A,,Unknown,0,2013-02-23 04:55:00